Content
SEND FEEDBACK

Daily
Averages
Monthly
Summary
United States of America

YIGO, GUAM


Home > North America > United States > Guam
Elevation: 530 feet     Latitude: 13 32N     Longitude: 144 53E

WEATHER
 
SELECT A DAY
Number of Records: 215,513;   Date Range: 1/1/95 - 12/17/14
 
SHARE

PRINT THIS DATA

[ ← Previous Day ]
WEATHER ALMANAC - JUNE 6, 2014
[ Next Day → ]
[ °C ]   °F
Weather ElementAverageHighLow
Temperature84.2 °F88 °F (11:54 am)80.1 °F (4:54 am)
Dewpoint74.7 °F75.9 °F (1:54 am)72 °F (11:54 am)
Humidity73.5 %85 % (2:54 am)59 % (11:54 am)
Barometer29.74 in29.78 in (9:03 am)29.69 in (3:54 pm)
Wind Speed6.3 mph10.4 mph (12:54 pm)
Weather ElementAverage
Visibility10 mi
Wind DirectionESE (96.8 °)

Weather ElementTotal
Precipitation---
Cooling Degree Days19.1 (Base 65)
Growing Degree Days34.1 (Base 50)
Averaged from 25 records on June 6, 2014
WEATHER CONDITIONS BREAKOUT
WIND DIRECTION BREAKOUT
WEATHER BY HOUR - JUNE 6, 2014
[ °C ]   °F
Local TimeTemperatureDewpointHumidityBarometerVisibilityWind DirectionWind SpeedGust SpeedPrecipitationEventsConditions
1:54 AM82.0 °F75.9 °F82 %29.76 in10.0 miEast (80°)4.6 mphClear
2:54 AM81.0 °F75.9 °F85 %29.74 in10.0 miEast (80°)4.6 mphClear
3:54 AM81.0 °F75.0 °F82 %29.74 in10.0 miEast (80°)4.6 mphClear
4:54 AM80.1 °F75.0 °F85 %29.74 in10.0 miNE (50°)5.8 mphClear
5:54 AM81.0 °F75.9 °F85 %29.75 in10.0 miEast (90°)3.5 mphScattered Clouds
6:54 AM82.0 °F75.9 °F82 %29.76 in10.0 miEast (100°)3.5 mphClear
7:54 AM84.9 °F75.9 °F74 %29.76 in10.0 miEast (90°)8.1 mphPartly Cloudy
8:54 AM84.0 °F75.9 °F76 %29.76 in10.0 miESE (120°)8.1 mphScattered Clouds
9:03 AM86.0 °F75.2 °F70 %29.78 in10.0 miEast (80°)9.2 mphMostly Cloudy
9:10 AM86.0 °F75.2 °F70 %29.78 in10.0 miEast (80°)6.9 mphScattered Clouds
9:54 AM84.9 °F75.0 °F72 %29.75 in10.0 miESE (110°)8.1 mphScattered Clouds
10:54 AM87.1 °F75.9 °F69 %29.75 in10.0 miESE (120°)5.8 mphMostly Cloudy
11:54 AM88.0 °F72.0 °F59 %29.74 in10.0 miEast (90°)9.2 mphPartly Cloudy
12:54 PM88.0 °F72.0 °F59 %29.73 in10.0 miSSE (150°)10.4 mphPartly Cloudy
1:54 PM88.0 °F73.9 °F63 %29.70 in10.0 miESE (120°)6.9 mphClear
2:54 PM88.0 °F73.0 °F61 %29.70 in10.0 miESE (110°)8.1 mphPartly Cloudy
3:54 PM87.1 °F73.9 °F65 %29.69 in10.0 miEast (100°)9.2 mphPartly Cloudy
4:54 PM86.0 °F75.0 °F70 %29.70 in10.0 miESE (110°)8.1 mphScattered Clouds
5:54 PM84.9 °F75.9 °F74 %29.71 in10.0 miEast (90°)9.2 mph0.00 inPartly Cloudy
6:54 PM84.0 °F75.0 °F74 %29.73 in10.0 miESE (110°)4.6 mphPartly Cloudy
7:54 PM82.9 °F73.9 °F74 %29.74 in10.0 miEast (90°)4.6 mphClear
8:54 PM82.0 °F73.9 °F76 %29.76 in10.0 miEast (90°)3.5 mphPartly Cloudy
9:54 PM82.9 °F73.9 °F74 %29.77 in10.0 miEast (80°)3.5 mphPartly Cloudy
10:54 PM82.9 °F73.9 °F74 %29.78 in10.0 miEast (90°)3.5 mphPartly Cloudy
11:54 PM81.0 °F75.0 °F82 %29.77 in10.0 miESE (110°)3.5 mphPartly Cloudy
Hourly data recorded from PGUM, located miles away from Yigo, Guam







STORIES FROM OUR PARTNERS